RH
6 6 6 7 10 10 9 9 7 10 11 10 13 10 8 12 15 14 17 25 26 27 30 30 29 30 33 35 37 40 41 40 41 45 48 46 45 48 47 46 46 45 47 49 49 51 52 50 47 42 41 44 46 50 50 47 44 43 44 42 44 46 46 45 43 39 40 41 43 44 46 47 45 42 42 44 47 43 38 37 38 38 36 34 29 25 24 28 29 26 21 14 11 11 11 11 10
7 8 7 7 10 10 10 10 10 13 12 11 12 10 9 12 14 15 16 23 30 32 32 31 33 35 36 37 40 41 43 47 46 45 47 44 45 46 45 46 47 48 48 48 49 50 51 48 45 43 43 45 46 49 50 47 45 45 45 45 45 47 47 46 44 40 40 44 46 47 47 49 50 48 46 45 46 45 42 39 39 40 37 35 29 25 25 26 24 22 18 13 10 10 11 10 9
7 10 8 9 10 10 11 11 13 13 11 10 12 13 13 12 12 15 17 24 31 33 32 31 34 38 37 39 42 43 48 54 53 50 50 44 44 46 46 47 48 49 49 50 50 49 48 45 45 44 45 45 44 45 48 48 46 46 47 47 45 45 48 48 46 43 42 44 46 48 49 50 52 53 54 53 51 50 45 41 40 39 38 36 31 26 25 24 22 18 16 11 9 11 12 11 10
7 10 10 10 10 10 12 13 16 14 12 12 14 17 16 16 16 18 21 25 29 29 32 32 34 38 40 44 44 45 50 54 54 52 50 44 43 45 47 48 48 49 49 49 50 48 45 43 45 45 45 44 44 45 47 46 44 45 46 46 45 44 47 47 47 46 46 48 48 48 49 49 53 57 59 58 58 60 57 49 43 40 39 36 32 28 25 24 22 17 13 10 9 16 20 16 12
7 11 11 11 11 11 12 14 17 14 12 13 16 20 18 20 22 23 24 26 28 30 33 34 36 38 41 43 41 45 49 50 49 46 47 45 42 43 46 49 49 49 48 49 49 47 43 42 43 44 43 42 42 43 45 44 43 44 44 45 45 44 43 44 46 48 48 50 51 50 51 51 54 57 58 59 57 61 64 59 49 43 40 36 31 28 27 25 22 16 14 12 12 21 26 21 17
10 11 11 11 11 11 13 15 15 14 13 12 19 23 20 23 26 26 26 27 28 30 33 32 34 36 39 39 37 43 44 44 44 42 44 44 43 42 45 49 50 49 48 48 47 45 42 41 41 42 42 40 39 40 42 44 42 43 44 45 46 45 43 44 46 47 47 49 52 55 58 58 58 57 56 57 56 57 62 66 57 47 44 41 34 30 29 28 23 17 14 16 16 21 26 24 22
11 11 11 12 11 12 16 17 17 16 14 11 22 26 20 22 26 29 30 31 30 29 31 32 32 34 37 37 38 40 37 38 39 38 40 41 42 42 44 46 48 49 48 47 44 43 40 41 41 40 39 38 37 36 39 42 41 41 44 45 47 48 46 45 46 47 48 49 53 56 60 60 61 60 56 53 52 54 59 66 63 50 46 46 40 33 31 29 25 18 15 18 20 22 27 28 27
12 11 11 12 13 13 15 16 15 16 14 12 22 27 22 21 24 30 32 33 33 31 32 33 31 33 36 35 39 41 35 35 36 37 39 38 39 39 40 42 46 47 46 44 42 41 39 42 42 40 38 36 34 33 37 40 41 40 43 46 48 50 48 46 46 47 47 50 53 54 56 57 59 60 59 53 48 51 55 61 60 50 47 47 42 37 35 32 26 21 17 19 23 24 28 31 30
12 11 11 13 14 14 15 15 12 14 13 11 18 21 20 21 22 29 30 30 32 32 34 33 30 34 37 37 41 41 36 36 36 37 35 34 34 34 38 41 43 43 42 41 39 39 40 42 42 41 38 36 34 34 37 40 42 41 43 46 47 50 50 48 46 46 46 49 53 53 53 54 56 58 59 56 49 49 53 56 57 51 49 47 42 39 38 35 28 22 19 20 24 26 28 31 31
11 12 12 14 14 15 16 15 14 13 12 10 13 13 17 21 21 25 27 28 32 34 34 32 30 33 37 37 39 37 34 35 35 36 33 31 30 32 39 40 38 37 37 38 37 37 38 40 41 40 38 35 34 34 37 40 42 42 43 44 46 50 50 48 45 44 43 44 49 52 53 52 52 55 57 58 53 50 53 53 54 50 45 44 42 39 39 37 30 24 20 18 21 25 28 29 31
12 12 12 15 16 16 16 15 15 13 12 11 10 10 16 22 21 22 25 30 34 35 33 29 31 33 33 35 37 34 32 32 31 32 31 30 30 32 35 35 34 35 36 35 36 35 35 36 37 37 36 34 33 33 37 40 43 43 44 45 46 47 46 45 42 42 40 41 44 47 52 52 51 54 56 58 53 49 52 50 51 49 38 36 39 38 39 38 32 26 22 17 16 19 26 29 30
12 13 14 17 17 17 17 17 15 13 12 11 11 13 18 23 23 22 25 30 34 34 31 26 29 31 32 36 38 36 33 31 29 28 30 31 31 30 31 31 33 35 35 34 33 33 32 32 33 34 34 33 32 33 35 39 42 44 45 45 45 45 44 44 42 41 39 39 41 43 48 51 51 53 54 56 51 47 50 49 49 48 35 30 32 31 33 37 34 28 23 20 15 13 21 28 30
13 14 15 17 18 18 17 16 14 14 14 13 14 16 19 23 23 22 24 29 33 32 27 25 27 29 34 37 38 38 35 33 29 28 31 32 31 30 29 31 33 34 34 32 31 31 30 30 31 32 32 30 30 33 36 38 39 41 42 41 42 41 40 41 40 37 36 38 41 42 45 47 50 53 52 53 50 47 51 52 52 48 38 29 27 24 26 32 33 29 25 22 18 12 18 26 30
13 14 15 16 18 18 16 15 14 15 16 14 15 17 19 21 22 23 24 28 29 26 27 28 27 29 35 37 39 40 36 34 32 31 32 33 31 30 30 31 33 34 33 32 31 31 30 30 31 32 30 28 28 32 38 40 38 37 37 36 36 36 37 40 37 34 36 39 42 43 44 45 48 51 51 51 49 49 49 53 56 51 42 34 27 22 20 24 28 28 25 23 20 14 17 27 30
13 13 16 17 18 17 16 16 15 16 17 15 14 15 17 20 22 23 23 25 26 27 29 30 26 28 35 37 38 39 36 35 34 33 32 31 30 30 31 32 34 34 34 33 31 31 31 31 31 30 26 25 26 29 35 39 38 35 33 31 31 33 37 40 39 37 39 42 44 45 44 42 44 51 53 53 52 51 48 52 58 55 46 40 32 23 18 19 24 24 23 23 22 16 16 26 31
13 14 17 16 17 17 16 17 17 17 18 16 14 14 15 18 19 21 21 22 28 31 30 29 25 25 31 34 34 36 37 37 37 35 32 29 29 30 32 33 34 34 34 33 32 32 31 31 30 26 23 23 24 26 30 33 35 33 31 28 28 31 35 38 43 42 40 41 44 46 44 40 43 51 57 58 56 53 51 51 57 58 51 46 39 28 19 19 24 23 20 20 23 20 15 21 30
12 14 17 17 17 17 17 19 18 17 17 16 15 15 17 18 18 21 24 26 29 30 27 27 25 23 29 31 32 36 38 37 37 35 31 30 29 29 31 32 32 31 31 30 30 29 28 27 25 22 20 21 21 23 26 28 30 30 31 29 28 33 34 36 42 43 40 42 46 46 44 43 46 52 57 59 57 53 52 52 55 58 55 53 47 35 23 20 23 23 19 17 20 23 18 17 27
14 17 18 18 17 16 18 20 18 17 16 16 16 16 18 20 21 25 27 28 28 26 25 25 26 28 31 32 34 37 35 34 34 31 29 28 27 26 28 29 28 28 28 28 28 26 25 23 22 21 20 21 20 21 23 25 27 28 30 31 31 35 35 34 36 38 40 44 47 48 46 45 50 53 54 56 54 51 50 51 53 53 55 57 52 41 28 21 22 21 19 18 17 21 22 18 24
15 18 19 17 17 17 18 19 17 18 17 17 17 17 20 22 24 26 27 28 26 26 27 27 31 33 33 35 36 35 32 31 30 28 27 25 24 23 25 28 28 27 27 27 27 26 24 22 21 21 21 21 20 21 21 22 25 26 29 31 31 33 34 34 34 36 39 42 44 47 48 47 50 53 53 55 54 52 51 52 51 50 53 55 53 46 32 23 21 19 17 18 16 17 22 21 21
15 16 18 16 16 19 18 17 17 17 17 18 18 19 22 24 25 26 27 29 27 27 29 29 35 38 36 37 34 33 32 31 29 27 26 26 25 22 22 26 27 27 27 28 27 26 25 22 21 20 21 21 21 22 22 22 23 25 28 30 30 32 33 33 34 37 41 44 40 41 46 47 49 54 59 59 57 56 53 54 55 53 52 53 55 49 37 27 21 17 16 17 17 15 21 23 20
15 15 16 15 17 20 18 16 17 17 17 18 18 20 22 23 25 26 28 29 29 29 28 27 32 36 36 36 33 32 31 30 29 26 26 26 25 23 21 22 24 26 27 28 27 26 24 22 20 19 20 22 22 23 23 23 22 23 27 29 29 29 31 33 34 37 41 43 41 39 44 46 45 51 60 63 60 58 55 57 60 56 53 55 57 53 45 37 25 17 15 16 16 16 21 24 21
15 15 14 15 18 20 18 16 16 16 18 17 18 21 22 22 25 25 26 28 27 26 25 24 26 29 31 32 31 30 28 28 27 24 24 26 25 23 20 21 24 25 26 25 24 24 23 21 20 19 19 20 22 23 23 24 23 23 25 27 26 24 29 34 35 38 40 42 43 43 47 47 44 46 54 61 61 61 58 58 58 55 54 55 58 58 53 44 31 20 15 14 16 17 21 24 23
15 14 13 14 18 19 17 16 17 16 17 18 19 21 20 21 25 25 23 24 22 21 22 22 22 23 26 28 28 28 27 24 24 24 24 26 27 23 20 21 23 23 23 23 23 22 21 21 20 20 19 17 18 20 22 23 24 24 24 27 28 24 25 30 34 38 41 42 44 46 49 47 44 46 52 59 62 62 61 61 58 54 54 54 55 58 56 48 37 24 18 17 17 18 21 23 22
14 15 13 14 17 17 16 16 17 16 18 19 20 21 20 20 22 22 20 20 20 21 22 22 22 25 26 27 28 27 25 21 22 24 25 28 29 25 22 22 23 22 22 22 23 22 20 21 20 20 20 18 17 17 19 22 24 25 25 31 36 30 23 24 30 39 42 43 44 47 49 48 46 50 55 58 61 63 62 64 62 56 54 56 55 56 57 56 48 32 21 20 20 19 20 19 19
15 14 13 14 16 16 16 16 17 17 19 21 21 22 21 19 19 19 19 18 20 23 23 24 26 29 28 28 28 26 22 19 21 24 25 27 28 26 24 25 24 23 22 21 22 22 21 21 21 20 20 20 20 18 17 19 23 26 27 35 41 37 29 23 27 37 43 45 45 46 49 49 50 54 58 59 62 64 65 67 66 61 57 57 58 58 57 60 61 49 31 22 23 23 20 18 17
17 16 14 14 15 16 16 16 16 17 19 21 22 22 20 18 18 18 19 19 21 24 24 26 27 28 29 28 27 24 20 19 21 23 24 26 26 25 25 25 24 23 21 19 19 20 20 21 21 21 21 20 21 20 19 19 22 24 27 34 40 42 37 27 25 32 42 46 46 48 49 51 54 56 60 61 63 66 68 69 68 66 64 63 62 61 59 60 63 61 47 31 26 26 23 20 18
17 16 15 14 14 15 16 16 17 17 19 22 23 23 20 18 18 18 19 20 22 25 25 25 25 27 28 28 25 23 20 20 21 23 24 25 25 25 25 24 23 22 20 18 18 18 18 19 20 20 20 21 21 22 22 22 21 22 25 29 33 37 35 29 27 31 40 44 44 48 50 53 55 57 60 62 64 65 67 66 66 65 66 68 66 63 62 64 63 61 57 45 34 29 26 25 22
16 16 15 15 15 15 16 17 17 18 20 21 22 21 19 17 17 18 20 22 24 24 24 22 24 25 25 25 24 22 21 21 22 22 23 25 25 24 22 22 21 20 19 18 17 16 16 18 18 19 18 20 22 23 25 26 24 23 25 26 28 30 29 28 29 34 44 45 43 47 49 52 54 55 58 59 61 63 65 66 66 65 66 67 68 66 65 68 70 67 62 55 45 36 30 26 25
15 16 16 17 18 16 16 17 17 18 19 19 18 20 22 20 17 19 22 24 26 24 22 22 23 24 24 24 23 23 22 21 21 22 23 24 23 22 21 20 19 18 19 18 16 15 15 16 17 16 16 18 23 25 27 27 27 25 26 26 26 28 28 29 28 33 45 48 46 47 48 50 52 53 55 57 58 61 64 66 65 64 66 69 72 72 69 68 73 76 73 64 55 46 36 29 27
15 16 16 18 19 17 16 16 17 16 17 17 18 23 28 25 18 19 24 24 25 24 22 22 22 22 23 24 24 23 22 20 20 21 23 23 22 22 21 21 20 19 19 18 16 15 15 14 14 15 15 17 23 27 27 27 27 27 26 25 25 25 26 28 28 31 39 46 47 49 49 49 51 52 54 54 55 57 61 65 65 64 65 70 75 79 76 71 71 77 81 74 66 59 49 39 33
16 16 19 19 18 19 18 17 17 17 18 19 20 24 27 25 18 17 21 23 23 23 23 22 22 21 22 23 23 23 21 20 20 21 22 23 22 23 23 22 22 20 18 18 17 16 15 14 14 15 15 17 22 26 27 27 26 25 24 24 22 22 23 24 25 26 31 39 44 48 51 51 51 52 54 53 52 53 56 60 61 61 64 69 76 82 82 79 76 78 83 83 77 72 63 51 43
19 17 22 25 20 21 20 17 18 18 18 19 19 21 21 21 18 14 18 21 21 21 22 22 21 21 22 24 25 24 23 21 20 21 23 24 23 24 23 23 23 22 20 19 18 18 18 16 15 16 16 17 20 23 25 24 23 22 21 20 20 21 22 22 22 22 24 29 34 41 49 53 53 52 52 53 52 51 52 55 58 60 65 70 76 81 83 84 84 82 84 86 84 82 75 63 53
25 20 21 24 20 21 21 19 19 18 18 17 17 19 19 20 18 15 18 20 20 20 21 21 20 20 21 23 25 25 23 22 21 22 23 23 23 24 24 24 25 24 24 22 21 21 19 17 17 17 16 17 17 19 20 18 19 19 18 19 20 21 21 21 21 21 21 22 24 28 35 43 47 49 50 51 52 52 51 51 55 61 65 71 76 79 81 79 83 86 85 85 86 87 87 76 64
27 27 24 24 21 20 21 20 19 18 18 16 16 17 19 20 19 17 17 19 20 21 21 20 20 20 21 23 24 23 22 23 23 23 24 24 24 24 25 25 26 26 26 23 23 22 19 19 20 19 19 19 18 15 14 16 17 17 18 21 23 22 20 20 20 20 19 20 21 21 23 28 33 39 45 49 49 52 53 54 59 63 63 67 71 74 77 76 81 86 83 82 83 88 92 87 77
24 28 29 28 26 22 22 22 21 18 18 17 17 18 19 20 21 20 18 19 21 22 22 22 22 21 22 23 24 23 22 22 23 24 24 24 24 25 26 27 28 29 27 25 24 24 22 22 22 21 20 21 20 15 13 15 14 14 19 22 21 19 17 18 19 19 18 17 17 18 19 22 25 28 34 41 48 53 55 61 68 67 64 65 67 70 74 77 82 84 80 78 83 89 93 91 87
23 27 27 27 26 25 25 24 23 21 19 20 20 20 21 21 22 22 19 19 20 21 22 23 23 23 22 23 24 24 23 23 24 25 25 26 26 27 28 29 31 31 30 27 27 26 24 23 22 22 21 21 21 17 14 13 13 15 18 18 17 15 14 15 16 15 14 13 13 14 15 17 21 23 26 33 45 54 57 60 66 68 68 68 67 70 74 77 80 81 78 76 78 85 91 90 89
26 27 25 25 24 25 26 25 27 27 21 22 25 23 23 23 24 25 20 20 22 23 25 24 24 25 25 25 26 26 25 25 25 25 26 27 28 28 29 31 33 34 33 30 28 28 26 24 23 23 22 21 22 18 14 13 14 16 17 16 14 12 12 12 11 10 11 12 12 12 13 15 16 19 22 26 34 46 52 55 59 65 72 74 72 73 77 80 82 81 78 75 73 77 85 88 86
28 27 25 25 28 27 27 29 33 32 24 26 30 27 26 28 31 29 23 22 25 26 28 28 26 26 26 27 28 28 27 27 28 27 28 28 29 29 30 31 33 34 33 32 31 29 26 25 25 25 24 23 23 20 16 15 16 16 16 17 15 12 12 11 10 10 10 10 10 11 13 14 16 18 20 21 23 30 38 43 51 60 68 75 78 81 85 83 84 86 82 79 78 78 84 87 87
32 31 28 29 34 32 33 37 39 37 29 28 30 27 29 34 34 32 28 25 25 25 26 27 27 28 28 28 29 31 31 31 30 30 29 30 30 30 31 32 33 34 33 32 32 30 26 26 26 27 26 25 25 21 16 16 16 15 16 17 16 14 13 13 12 12 11 10 10 9 10 11 13 15 17 17 17 20 25 28 36 47 57 64 70 76 82 79 81 90 89 84 83 82 83 86 89
35 32 30 33 35 34 35 40 41 41 35 31 32 31 33 36 32 30 28 27 27 26 26 27 27 28 29 30 32 33 34 33 33 32 31 31 30 31 31 32 34 33 31 30 31 30 28 27 27 27 27 26 27 23 18 17 16 15 16 17 16 15 14 14 13 12 12 12 11 10 9 9 9 11 12 13 14 15 18 19 20 27 37 46 51 57 64 64 69 81 86 86 83 80 78 80 85
37 37 34 36 38 36 37 39 42 44 42 39 36 35 40 40 33 31 30 30 31 30 30 30 28 28 28 30 32 33 34 33 32 30 29 29 30 31 32 33 34 31 29 29 31 31 29 28 28 28 28 28 28 25 20 17 17 16 17 17 17 16 16 15 15 14 14 13 12 12 11 10 10 11 11 12 13 13 13 14 14 14 20 28 35 42 48 49 53 59 65 71 73 72 70 70 75
40 41 39 39 39 39 39 41 44 45 46 44 38 38 47 45 38 37 37 37 37 36 36 33 29 29 29 29 30 31 33 32 30 28 27 30 31 32 34 34 31 27 27 30 32 34 32 29 29 29 29 30 29 27 21 18 17 16 15 16 16 16 16 16 17 16 16 15 14 14 13 12 11 11 12 13 13 13 12 12 13 13 12 15 19 26 32 36 39 41 44 49 54 57 58 60 64
40 42 43 42 39 39 40 41 42 43 45 47 46 45 47 45 41 41 40 39 40 40 41 39 33 29 30 29 28 28 30 30 29 29 30 32 33 33 34 31 26 25 30 33 34 35 33 31 31 31 30 31 29 27 23 18 17 16 14 15 15 16 16 17 18 18 18 17 15 15 14 14 13 12 12 13 14 14 14 14 14 15 15 14 14 15 21 25 28 30 32 34 38 41 44 47 50
43 45 46 43 39 40 42 41 41 45 44 46 52 47 42 43 41 42 42 39 40 40 40 42 40 34 30 29 28 26 26 28 30 32 33 34 33 33 30 27 25 27 31 33 33 34 34 33 34 34 33 32 30 28 24 19 17 16 15 15 16 17 17 18 19 20 20 19 18 17 16 15 15 14 13 13 13 13 14 14 14 15 16 17 17 17 19 22 24 25 26 26 26 28 29 31 33
44 46 44 40 39 41 44 44 44 48 43 44 52 46 41 46 45 42 41 37 37 37 35 37 37 32 26 25 27 24 24 28 31 33 33 33 32 29 26 23 23 27 29 30 32 34 35 35 36 36 35 34 31 27 24 19 17 17 16 16 17 17 18 19 20 21 21 20 19 19 18 17 16 16 15 15 14 14 14 13 13 14 14 15 16 16 17 18 19 20 21 21 21 22 23 23 23
40 42 40 38 41 42 42 43 45 48 45 45 50 44 40 46 44 39 34 30 32 33 31 30 30 27 23 23 24 23 24 28 30 31 33 31 29 27 26 24 24 26 27 29 31 34 37 37 37 36 35 34 31 28 25 20 18 19 18 16 17 18 19 20 20 21 22 22 21 19 19 18 17 16 16 16 16 15 15 15 14 13 14 14 14 14 13 13 13 13 13 15 16 17 18 19 21
35 36 37 34 39 41 42 45 43 41 44 45 47 45 44 45 43 37 32 30 32 31 28 28 27 26 24 22 23 23 24 28 31 33 34 32 29 28 29 28 28 29 29 29 32 35 37 38 35 34 35 35 35 32 26 20 20 22 20 17 17 18 19 20 20 21 22 22 21 20 18 17 17 17 17 16 16 16 16 16 16 15 15 14 14 14 13 12 12 11 11 11 11 12 13 15 17
34 33 35 33 35 38 39 42 38 37 42 42 41 43 43 41 38 36 35 33 32 29 27 28 27 25 23 25 28 27 27 29 33 35 37 36 34 33 33 33 32 34 34 33 34 35 35 35 35 35 38 39 40 36 27 22 22 24 22 19 17 19 20 20 21 21 22 22 20 19 18 17 17 17 17 17 17 17 17 16 16 16 16 15 15 14 14 13 12 12 11 11 11 11 11 12 13
34 35 38 37 39 38 39 42 39 40 39 35 35 37 37 37 34 35 37 34 32 30 28 28 29 27 26 28 31 31 31 32 34 37 39 40 39 39 38 37 37 37 36 36 36 35 33 33 34 34 36 38 39 36 28 24 25 25 25 23 19 19 20 20 21 23 22 21 21 20 18 18 18 17 17 17 17 17 17 17 17 16 16 15 15 14 14 14 13 13 13 12 12 11 12 11 12
39 39 41 42 43 42 47 51 43 39 37 35 36 36 35 36 35 40 43 38 35 34 31 30 31 31 32 32 31 30 31 33 38 42 42 41 41 40 39 38 37 37 37 36 37 37 34 32 33 33 33 34 35 33 29 28 29 27 26 25 23 21 20 21 22 23 22 21 21 22 20 20 19 18 17 17 17 17 17 17 16 16 16 15 15 15 15 14 14 14 14 13 13 12 12 12 13
42 41 39 41 45 44 46 47 39 35 37 38 36 34 36 36 37 45 47 43 41 38 35 34 33 33 34 34 32 32 33 34 38 43 44 43 43 41 39 38 37 38 40 38 36 37 37 35 35 35 35 35 34 32 31 30 30 30 28 26 25 24 22 23 23 21 21 22 23 23 22 21 21 20 19 18 17 17 17 17 16 16 15 14 14 15 14 14 14 14 14 14 13 13 12 12 13
44 43 39 39 43 43 42 43 42 42 42 43 40 39 43 41 40 45 46 45 46 41 39 39 38 35 33 33 33 34 36 37 37 40 42 42 45 45 42 39 39 40 42 41 38 38 39 39 38 38 38 38 36 36 35 33 32 34 32 28 27 26 25 25 25 23 22 22 24 24 23 22 22 21 20 19 18 18 17 17 17 16 15 14 14 14 15 15 14 14 14 14 14 13 13 13 13
47 42 41 42 41 41 41 43 48 49 47 48 45 42 45 42 42 44 43 43 46 45 43 44 44 41 36 35 34 32 34 36 36 37 38 39 41 45 44 42 42 41 41 42 41 40 41 41 41 41 42 42 40 39 38 36 36 36 35 33 31 29 26 24 25 26 25 24 24 25 25 24 23 22 21 20 20 19 19 18 18 17 16 15 15 14 15 15 15 15 15 14 15 14 14 14 13
44 43 44 45 42 44 45 45 51 54 51 52 48 43 45 44 44 46 42 39 41 44 45 45 46 46 44 44 41 38 37 35 34 34 36 38 39 40 41 43 44 44 43 43 44 44 43 44 44 44 44 45 45 45 43 39 38 38 38 36 36 34 30 27 26 27 26 25 25 26 26 26 25 23 22 21 20 20 20 20 19 18 17 16 16 16 16 15 15 15 15 15 15 14 15 14 14
42 46 47 46 47 50 50 48 50 52 52 56 51 46 45 43 43 44 39 36 37 40 43 45 46 47 46 45 43 43 43 39 36 34 33 36 38 40 42 43 43 44 45 45 47 47 48 48 48 46 46 47 50 51 49 46 43 41 40 39 39 38 35 32 31 30 28 27 27 27 28 28 27 25 24 22 21 20 20 20 20 19 18 17 17 17 17 16 16 16 15 15 15 15 14 14 15
44 47 48 50 51 51 50 48 48 47 53 59 52 43 42 41 42 41 37 36 38 40 43 45 46 48 47 45 43 42 41 39 37 35 33 33 34 38 43 44 45 45 46 48 49 49 49 50 49 48 48 49 51 53 54 52 50 45 44 43 43 43 40 38 36 33 31 29 30 31 31 30 28 26 25 24 21 20 20 20 20 19 18 17 17 17 17 17 16 16 16 15 15 14 14 14 14
48 49 49 50 50 50 49 48 46 45 52 59 53 44 44 42 42 41 37 37 39 40 42 43 42 43 45 47 46 45 44 42 39 38 36 34 35 39 41 42 45 46 48 50 51 53 53 51 50 51 52 51 51 53 54 53 51 48 46 46 47 46 44 43 41 38 34 31 32 34 34 33 30 28 27 27 23 21 20 21 21 19 18 18 18 17 17 17 17 16 16 16 15 15 14 14 14
53 52 50 50 51 51 50 52 55 51 49 53 52 48 48 48 48 45 41 40 40 38 38 38 37 38 40 43 45 46 47 46 43 40 37 37 40 42 41 41 42 45 48 48 49 52 54 53 54 54 54 53 52 53 56 57 56 53 49 47 49 49 47 46 45 42 38 34 33 35 36 36 33 30 29 29 26 22 21 22 22 20 19 19 19 18 18 18 17 18 17 17 17 17 17 17 16